Weather History for Elizabethton, TN

Change the Weather History Date:

Wednesday, May 7, 2014

  Actual Average (KTRI) Record (KTRI)
Temperature  
Mean Temperature 67 °F 61 °F  
Max Temperature 84 °F 74 °F 88 °F (1940)
Min Temperature 50 °F 49 °F 33 °F (1989)
Degree Days  
Heating Degree Days 0 5  
Month to date heating degree days 38  
Since 1 July heating degree days 4292  
Cooling Degree Days 2 1  
Month to date cooling degree days 7  
Year to date cooling degree days 18  
Growing Degree Days 17 (Base 50)    
Moisture  
Dew Point 52 °F    
Average Humidity 65    
Maximum Humidity 94    
Minimum Humidity 35    
Precipitation  
Precipitation 0.00 in 0.12 in 2.28 in (1984)
Month to date precipitation 0.82  
Year to date precipitation 14.41  
Snow  
Snow 0.00 in 0.00 in - ()
Month to date snowfall 0.0  
Since 1 July snowfall 13.3  
Snow Depth -    
Sea Level Pressure  
Sea Level Pressure 30.09 in    
Wind  
Wind Speed 1 mph (West)    
Max Wind Speed 12 mph    
Max Gust Speed -    
Visibility 10 miles    
Events      
T = Trace of Precipitation, MM = Missing Value Source: NWS Daily Summary

Daily Weather History Graph

Daily Weather History Graph

Search for Another Location

Airport:

Trip Planner

Search our weather history database for the weather conditions in past years. The results will help you decide how hot, cold, wet, or windy it might be!

Date:

Astronomy

May. 07, 2014 Rise Set
Actual Time 6:29 AM EDT 8:21 PM EDT
Civil Twilight 6:01 AM EDT 8:49 PM EDT
Nautical Twilight 5:27 AM EDT 9:24 PM EDT
Astronomical Twilight 4:50 AM EDT 10:00 PM EDT
Moon 1:37 PM EDT (5/7) 2:15 AM EDT (5/7)
Length of Visible Light 14h 48m
Length of Day
13h 52m
First Quarter, 55% of the Moon is Illuminated
May 7
First Quarter
May 14
Full
May 21
Last Quarter
May 28
New
Jun 5
First Quarter

Hourly Weather History & Observations

Time (EDT) Temp. Heat Index Dew Point Humidity Pressure Visibility Wind Dir Wind Speed Gust Speed Precip Events Conditions
12:15 AM 55.4 °F - 48.2 °F 77% 30.02 in 10.0 mi Calm Calm - N/A   Clear
12:35 AM 53.6 °F - 48.2 °F 82% 30.02 in 10.0 mi Calm Calm - N/A   Clear
12:55 AM 53.6 °F - 48.2 °F 82% 30.03 in 10.0 mi Calm Calm - N/A   Clear
1:15 AM 53.6 °F - 48.2 °F 82% 30.03 in 10.0 mi Calm Calm - N/A   Clear
1:35 AM 53.6 °F - 48.2 °F 82% 30.04 in 10.0 mi Calm Calm - N/A   Clear
1:55 AM 53.6 °F - 48.2 °F 82% 30.04 in 10.0 mi Calm Calm - N/A   Clear
2:15 AM 53.6 °F - 48.2 °F 82% 30.04 in 10.0 mi Calm Calm - N/A   Clear
2:35 AM 53.6 °F - 48.2 °F 82% 30.04 in 10.0 mi Calm Calm - N/A   Clear
2:55 AM 53.6 °F - 48.2 °F 82% 30.04 in 10.0 mi Calm Calm - N/A   Clear
3:15 AM 53.6 °F - 48.2 °F 82% 30.04 in 10.0 mi Calm Calm - N/A   Clear
3:35 AM 53.6 °F - 48.2 °F 82% 30.04 in 10.0 mi Calm Calm - N/A   Clear
3:55 AM 51.8 °F - 48.2 °F 88% 30.05 in 10.0 mi Calm Calm - N/A   Clear
4:15 AM 51.8 °F - 48.2 °F 88% 30.05 in 10.0 mi Calm Calm - N/A   Clear
4:35 AM 51.8 °F - 48.2 °F 88% 30.06 in 10.0 mi Calm Calm - N/A   Clear
5:15 AM 51.8 °F - 48.2 °F 88% 30.07 in 10.0 mi Calm Calm - N/A   Clear
5:35 AM 51.8 °F - 48.2 °F 88% 30.07 in 10.0 mi Calm Calm - N/A   Clear
5:55 AM 51.8 °F - 48.2 °F 88% 30.07 in 10.0 mi Calm Calm - N/A   Clear
6:15 AM 50.0 °F - 48.2 °F 94% 30.07 in 10.0 mi Calm Calm - N/A   Clear
6:35 AM 51.8 °F - 48.2 °F 88% 30.08 in 10.0 mi Calm Calm - N/A   Clear
7:15 AM 51.8 °F - 50.0 °F 94% 30.10 in 10.0 mi Calm Calm - N/A   Clear
7:35 AM 53.6 °F - 51.8 °F 94% 30.10 in 10.0 mi Calm Calm - N/A   Clear
7:55 AM 55.4 °F - 51.8 °F 88% 30.11 in 10.0 mi Calm Calm - N/A   Clear
8:15 AM 57.2 °F - 51.8 °F 82% 30.12 in 10.0 mi Calm Calm - N/A   Clear
8:35 AM 60.8 °F - 51.8 °F 72% 30.13 in 10.0 mi Calm Calm - N/A   Clear
8:55 AM 62.6 °F - 51.8 °F 68% 30.13 in 10.0 mi Calm Calm - N/A   Clear
9:15 AM 62.6 °F - 51.8 °F 68% 30.14 in 10.0 mi Calm Calm - N/A   Clear
9:35 AM 64.4 °F - 51.8 °F 64% 30.15 in 10.0 mi Calm Calm - N/A   Clear
9:55 AM 68.0 °F - 53.6 °F 60% 30.15 in 10.0 mi Calm Calm - N/A   Clear
10:15 AM 71.6 °F - 55.4 °F 57% 30.14 in 10.0 mi Calm Calm - N/A   Clear
10:35 AM 73.4 °F - 53.6 °F 50% 30.14 in 10.0 mi Calm Calm - N/A   Clear
11:15 AM 75.2 °F - 53.6 °F 47% 30.15 in 10.0 mi Calm Calm - N/A   Unknown
11:55 AM 77.0 °F - 55.4 °F 47% 30.14 in 10.0 mi Calm Calm - N/A   Clear
12:35 PM 78.8 °F - 53.6 °F 42% 30.12 in 10.0 mi Calm Calm - N/A   Clear
12:55 PM 78.8 °F - 55.4 °F 44% 30.11 in 10.0 mi Calm Calm - N/A   Clear
1:15 PM 80.6 °F 80.5 °F 55.4 °F 42% 30.10 in 10.0 mi Calm Calm - N/A   Clear
1:35 PM 80.6 °F 80.3 °F 53.6 °F 39% 30.10 in 10.0 mi Calm Calm - N/A   Clear
1:55 PM 82.4 °F 81.7 °F 55.4 °F 39% 30.10 in 10.0 mi Variable 3.5 mph - N/A   Clear
2:15 PM 82.4 °F 81.7 °F 55.4 °F 39% 30.09 in 10.0 mi WNW 5.8 mph - N/A   Clear
2:35 PM 82.4 °F 81.7 °F 55.4 °F 39% 30.09 in 10.0 mi West 9.2 mph - N/A   Clear
2:55 PM 82.4 °F 81.7 °F 55.4 °F 39% 30.09 in 10.0 mi West 11.5 mph - N/A   Clear
3:15 PM 82.4 °F 81.4 °F 53.6 °F 37% 30.08 in 10.0 mi West 9.2 mph - N/A   Clear
3:35 PM 82.4 °F 81.7 °F 55.4 °F 39% 30.07 in 10.0 mi WNW 8.1 mph - N/A   Clear
3:55 PM 84.2 °F 83.0 °F 55.4 °F 37% 30.07 in 10.0 mi West 6.9 mph - N/A   Clear
4:15 PM 84.2 °F 83.0 °F 55.4 °F 37% 30.06 in 10.0 mi West 6.9 mph - N/A   Clear
4:35 PM 84.2 °F 82.8 °F 53.6 °F 35% 30.06 in 10.0 mi WSW 8.1 mph - N/A   Clear
4:55 PM 84.2 °F 83.0 °F 55.4 °F 37% 30.06 in 10.0 mi West 10.4 mph - N/A   Clear
5:15 PM 84.2 °F 82.8 °F 53.6 °F 35% 30.06 in 10.0 mi West 8.1 mph - N/A   Clear
5:35 PM 84.2 °F 82.8 °F 53.6 °F 35% 30.06 in 10.0 mi West 6.9 mph - N/A   Clear
5:55 PM 82.4 °F - 51.8 °F 35% 30.06 in 10.0 mi Variable 3.5 mph - N/A   Clear
6:15 PM 82.4 °F 81.4 °F 53.6 °F 37% 30.06 in 10.0 mi West 5.8 mph - N/A   Clear
6:35 PM 82.4 °F - 51.8 °F 35% 30.06 in 10.0 mi WNW 5.8 mph - N/A   Clear
6:55 PM 82.4 °F 81.4 °F 53.6 °F 37% 30.07 in 10.0 mi WNW 4.6 mph - N/A   Clear
7:15 PM 78.8 °F - 55.4 °F 44% 30.07 in 10.0 mi West 3.5 mph - N/A   Clear
7:35 PM 73.4 °F - 57.2 °F 57% 30.08 in 10.0 mi NW 3.5 mph - N/A   Clear
7:55 PM 69.8 °F - 57.2 °F 64% 30.08 in 10.0 mi Calm Calm - N/A   Clear
8:15 PM 66.2 °F - 57.2 °F 73% 30.08 in 10.0 mi Calm Calm - N/A   Clear
8:35 PM 66.2 °F - 55.4 °F 68% 30.09 in 10.0 mi Calm Calm - N/A   Clear
8:55 PM 66.2 °F - 55.4 °F 68% 30.10 in 10.0 mi Calm Calm - N/A   Clear
9:15 PM 64.4 °F - 55.4 °F 73% 30.10 in 10.0 mi Calm Calm - N/A   Partly Cloudy
9:35 PM 64.4 °F - 53.6 °F 68% 30.11 in 10.0 mi Calm Calm - N/A   Clear
9:55 PM 62.6 °F - 55.4 °F 77% 30.11 in 10.0 mi Calm Calm - N/A   Clear
10:15 PM 62.6 °F - 55.4 °F 77% 30.12 in 10.0 mi Calm Calm - N/A   Clear
10:35 PM 60.8 °F - 55.4 °F 82% 30.12 in 10.0 mi Calm Calm - N/A   Clear
10:55 PM 60.8 °F - 55.4 °F 82% 30.12 in 10.0 mi Calm Calm - N/A   Clear
11:15 PM 59.0 °F - 53.6 °F 82% 30.12 in 10.0 mi Calm Calm - N/A   Clear
11:35 PM 59.0 °F - 53.6 °F 82% 30.12 in 10.0 mi Calm Calm - N/A   Clear
11:55 PM 57.2 °F - 53.6 °F 88% 30.12 in 10.0 mi Calm Calm - N/A   Clear